Location: Unspecified
(0.0000°N, 0.0000°E)
Time: 13:05:29
(UTC+01:00)

ARIANE DEB (SPELDA) - Visible Passes

Search period start: 31 October 2014 00:00
Search period end: 10 November 2014 00:00
Orbit: 334 x 33274 km, 3.4° (Epoch: 28 October)

Date Brightness Start Highest point End Pass type
(mag) Time Alt. Az. Time Alt. Az. Time Alt. Az.
31 Oct 6.6 02:04:38 24° E 02:04:38 24° E 02:14:19 10° E visible
31 Oct 10.3 06:45:28 10° E 09:05:27 20° E 10:20:10 10° E visible
31 Oct 4.2 21:01:16 10° W 21:12:32 50° WNW 21:12:32 50° WNW visible
02 Nov 5.8 02:51:49 50° ESE 02:51:49 50° ESE 11:30:54 10° E visible
02 Nov 5.9 21:57:52 10° W 21:59:38 15° W 21:59:38 15° W visible
04 Nov 5.2 03:38:45 78° S 03:39:03 79° S 12:30:14 10° E visible
06 Nov 5.5 04:25:29 48° WSW 04:31:02 81° S 13:24:53 10° E visible
08 Nov 6.2 05:11:59 23° W 05:25:02 83° S 14:17:00 10° E visible
09 Nov 4.3 11:05:08 10° W 19:46:36 79° N 16:56:30 10° W visible
